Regional Weather Roundup
Issued by NWS

Home | Current Version | Previous Version | Graphics & Text | Print | Product List | Glossary On
Versions: 1 2 3 4 5 6 7 8 9 10 11 12 13 14 15 16 17 18 19 20 21 22 23 24 25 26 27
000
ASUS43 KDMX 202107
RWRIA

WEATHER ROUNDUP FOR IOWA
NATIONAL WEATHER SERVICE DES MOINES IA
400 PM CDT SUN APR 20 2014

NOTE: "FAIR" INDICATES FEW OR NO CLOUDS BELOW 12,000 FEET WITH NO
SIGNIFICANT WEATHER AND/OR OBSTRUCTIONS TO VISIBILITY.

* - THESE STATIONS ARE NOT NWS STATIONS...THUS NOT UNDER NWS
QUALITY CONTROL.  THEY ALSO DO NOT REPORT WEATHER SUCH
AS PRECIPITATION OR FOG.

IAZ001>003-012>014-020>022-031>034-043>046-202200-
   NORTHWEST IOWA

CITY           SKY/WX    TMP DP  RH WIND       PRES   REMARKS
CARROLL *      SUNNY     82  48  30 SW22      29.92F HX  81
CHEROKEE *     PTSUNNY   79  52  38 S12       29.91F
DENISON *      SUNNY     82  50  32 SW17      29.91F HX  81
LE MARS *      PTSUNNY   79  54  41 S12       29.90F
ORANGE CITY *  MOSUNNY   79  52  38 S10G16    29.91F
SHELDON *      SUNNY     75  54  46 S9G16     29.91F
SIOUX CITY     PTSUNNY   85  51  31 SW14      29.88F HX  83
SPENCER        PTSUNNY   77  55  46 SE7       29.93F
STORM LAKE *   MOSUNNY   79  52  38 S17G28    29.93F HAZE
$$

IAZ055>058-069>071-079>083-090>094-202200-
   SOUTHWEST IOWA

CITY           SKY/WX    TMP DP  RH WIND       PRES   REMARKS
ATLANTIC *     MOSUNNY   82  52  34 S17G26    29.92F HX  81
AUDUBON *      SUNNY     84  41  21 SW13      29.94F HX  81
CLARINDA *     SUNNY     82  54  36 S16       29.96F HX  81
COUNCIL BLFS * MOSUNNY   82  54  36 SW15G21   29.91F HX  81
CRESTON *      SUNNY     79  55  44 S15G26    29.98F
HARLAN  *      SUNNY     82  50  32 SW17      29.95F HX  81
LAMONI         PTSUNNY   77  52  41 S13       30.00F
RED OAK *      PTSUNNY   82  54  36 S10G23    29.93F HX  81
SHENANDOAH *   MOSUNNY   84  54  34 SW16      29.93F HX  83
$$

IAZ047>049-059>061-072>074-084-202200-
   CENTRAL IOWA

CITY           SKY/WX    TMP DP  RH WIND       PRES   REMARKS
AMES           PTSUNNY   82  53  36 S21G28    29.94F HX  81
ANKENY *       SUNNY     81  54  39 S14G23    29.95F HX  80
CHARITON *     SUNNY     79  52  38 SW18G24   29.99F
DES MOINES     PTSUNNY   82  52  35 SW15G25   29.96F HX  81
GRINNELL*      CLOUDY    81  48  32 S16G25    29.98F HX  80
KNOXVILLE *    SUNNY     81  50  34 S21       29.97F HX  80
MARSHALLTOWN   PTSUNNY   78  54  43 S14G24    29.96F
NEWTON *       SUNNY     81  52  36 S17       29.98F HX  80
PELLA *        PTSUNNY   81  50  34 SW14      29.99F HX  80
PERRY *          N/A     84  45  24 SW17G24   29.93F HX  82
$$

IAZ004>006-015-016-023>025-035-036-202200-
   NORTH CENTRAL IOWA

CITY           SKY/WX    TMP DP  RH WIND       PRES   REMARKS
ALGONA *       SUNNY     75  55  50 S10       29.94F
CLARION *      SUNNY     75  63  64 SE14      29.94F
ESTHERVILLE    MOSUNNY   75  56  51 VRB5      29.94F
FORT DODGE *   PTSUNNY   82  55  39 SW10G20   29.93F HX  82
MASON CITY     PTSUNNY   70  56  61 SE10      29.97F
FOREST CITY *  MOSUNNY   72  55  56 SE9       29.96F
IOWA FALLS *     N/A     81  54  39 S18       29.95F HX  80
$$

IAZ007>011-017>019-026>030-037>042-050>054-066-202200-
   NORTHEAST IOWA

CITY           SKY/WX    TMP DP  RH WIND       PRES   REMARKS
CEDAR RAPIDS   PTSUNNY   80  46  30 S13       29.99F
CHARLES CITY * PTSUNNY   63  55  77 E8        30.00F
CLINTON *      MOSUNNY   81  45  28 SW16G22   30.07S
DECORAH *      PTSUNNY   61  57  88 SE3       30.01F
DUBUQUE        PTSUNNY   78  46  32 SW14G25   30.02F
MONTICELLO *   MOSUNNY   79  48  34 S15       30.01F
OELWEIN *      SUNNY    N/A N/A N/A E13       29.99F
WATERLOO       CLOUDY    77  52  41 MISG      29.96F
$$

IAZ064-065-067-068-078-202200-
   EAST CENTRAL IOWA

CITY           SKY/WX    TMP DP  RH WIND       PRES   REMARKS
DAVENPORT      SUNNY     81  43  26 S16       30.04F
IOWA CITY      PTSUNNY   80  48  32 S15       30.02F
MT. PLEASANT * MOSUNNY   82  41  23 SW15G21   30.01F HX  80
MUSCATINE *    SUNNY     82  46  28 S15       30.01F HX  81
QUAD CITIES    SUNNY     81  44  27 S6G21     30.02F HX  80
$$

IAZ062-063-075>077-085>089-095>099-202200-
   SOUTHEAST IOWA

CITY           SKY/WX    TMP DP  RH WIND       PRES   REMARKS
BURLINGTON     MOSUNNY   81  47  30 SW13G26   30.02F HX  80
FAIRFIELD *    SUNNY     81  46  30 S16G23    30.01F HX  80
FORT MADISON * SUNNY     81  46  30 S13G20    30.04F HX  80
KEOKUK *       SUNNY     81  48  32 S14G21    30.02F HX  80
OSKALOOSA *      N/A     81  46  30 SW20      30.00F HX  80
CENTERVILLE *  SUNNY     77  50  38 S13       30.03F
OTTUMWA        PTSUNNY   81  47  30 S17       30.00F HX  80
WASHINGTON *   SUNNY     81  46  30 SW18      30.01F HX  80
$$

ABBREVIATIONS USED IN REMARKS
   TC - TEMPERATURES IN CELSIUS
  WCI - WIND CHILL INDEX
   HX - HEAT INDEX
  VSB - VISIBILITY
$$




USA.gov is the U.S. government's official web portal to all federal, state and local government web resources and services.